CW5914 Weather Reports


Display with metric or nautical units.
time (UTC)temp
F
wind
direction
speed
MPH
gust
MPH
rain 1hr
in
rain 24hr
in
rain mn
in
humidity
%
barometer
mb
20260505022326 66 218 1.0 1.0 0.00 0.00 0.00 41 1006.9
20260505021824 67 215 0.0 1.0 0.00 0.00 0.00 40 1006.9
20260505021320 67 205 1.0 1.0 0.00 0.00 0.00 39 1007.0
20260505020816 68 218 1.0 1.0 0.00 0.00 0.00 39 1006.8
20260505020312 68 198 2.0 2.0 0.00 0.00 0.00 38 1006.7
20260505015809 68 197 2.0 2.0 0.00 0.00 0.00 37 1006.8
20260505015306 68 196 1.0 2.0 0.00 0.00 0.00 38 1006.5
20260505014803 68 193 3.0 3.0 0.00 0.00 0.00 37 1006.7
20260505014300 68 222 0.0 1.0 0.00 0.00 0.00 38 1006.7
20260505013757 69 198 2.0 2.0 0.00 0.00 0.00 38 1006.8
20260505013254 69 185 3.0 3.0 0.00 0.00 0.00 37 1007.1
20260505012752 69 206 1.0 1.0 0.00 0.00 0.00 36 1006.9
20260505012250 69 222 0.0 1.0 0.00 0.00 0.00 36 1006.9
20260505011745 68 213 1.0 2.0 0.00 0.00 0.00 38 1007.0
20260505011242 68 202 1.0 1.0 0.00 0.00 0.00 39 1007.1
20260505010738 68 185 3.0 3.0 0.00 0.00 0.00 39 1007.0
20260505010234 68 179 2.0 2.0 0.00 0.00 0.00 38 1007.1
20260505005731 68 203 1.0 1.0 0.00 0.00 0.00 38 1007.3
20260505005228 68 212 3.0 3.0 0.00 0.00 0.00 39 1007.3
20260505004725 69 217 4.0 5.0 0.00 0.00 0.00 39 1007.6
20260505004221 69 259 3.0 3.0 0.00 0.00 0.00 34 1007.6
20260505003719 69 233 2.0 3.0 0.00 0.00 0.00 35 1007.6
20260505003217 69 276 2.0 2.0 0.00 0.00 0.00 34 1007.6
20260505002712 69 275 3.0 3.0 0.00 0.00 0.00 35 1007.7
20260505002210 69 144 3.0 5.0 0.00 0.00 0.00 33 1007.5
20260505001708 70 17 3.0 3.0 0.00 0.00 0.00 36 1007.6
20260505001205 70 354 4.0 6.0 0.00 0.00 0.00 35 1007.8
20260505000702 70 307 5.0 6.0 0.00 0.00 0.00 35 1007.8
20260505000200 70 30 1.0 2.0 0.00 0.00 0.00 35 1007.7
20260504235656 70 191 5.0 6.0 0.00 0.00 0.00 35 1007.6
20260504235152 71 13 3.0 3.0 0.00 0.00 0.00 36 1007.7
20260504234650 71 39 4.0 5.0 0.00 0.00 0.00 36 1007.7
20260504234147 71 42 2.0 2.0 0.00 0.00 0.00 36 1007.7
20260504233642 70 280 5.0 6.0 0.00 0.00 0.00 36 1007.6
20260504233138 70 312 8.0 9.0 0.00 0.00 0.00 36 1007.6
20260504232637 71 352 7.0 10.0 0.00 0.00 0.00 36 1007.5
20260504232133 70 327 10.0 13.0 0.00 0.00 0.00 37 1007.5
20260504231630 69 339 6.0 8.0 0.00 0.00 0.00 39 1007.5
20260504231126 69 16 11.0 15.0 0.00 0.00 0.00 40 1007.5
20260504230622 71 9 9.0 11.0 0.00 0.00 0.00 38 1007.6
20260504230121 76 334 11.0 16.0 0.00 0.00 0.00 32 1007.6
20260504225619 75 223 5.0 6.0 0.00 0.00 0.00 32 1007.1
20260504225115 75 229 6.0 8.0 0.00 0.00 0.00 33 1007.2
20260504224612 76 215 2.0 2.0 0.00 0.00 0.00 32 1007.0
20260504224109 76 230 1.0 1.0 0.00 0.00 0.00 32 1007.2
20260504223606 75 285 4.0 6.0 0.00 0.00 0.00 32 1007.1
20260504223101 76 260 2.0 3.0 0.00 0.00 0.00 31 1007.0
20260504222559 76 312 2.0 3.0 0.00 0.00 0.00 31 1007.1
20260504222056 76 219 1.0 1.0 0.00 0.00 0.00 30 1007.0
20260504221553 74 268 2.0 2.0 0.00 0.00 0.00 31 1007.1
20260504221050 75 18 3.0 3.0 0.00 0.00 0.00 30 1007.2
20260504220546 75 249 0.0 0.0 0.00 0.00 0.00 30 1007.2
20260504220043 76 38 3.0 5.0 0.00 0.00 0.00 31 1007.2
20260504215539 75 256 1.0 1.0 0.00 0.00 0.00 31 1007.3
20260504215037 74 322 3.0 3.0 0.00 0.00 0.00 30 1007.6
20260504214533 76 333 2.0 3.0 0.00 0.00 0.00 30 1007.5
20260504214030 75 274 4.0 6.0 0.00 0.00 0.00 32 1007.5
20260504213526 74 230 0.0 1.0 0.00 0.00 0.00 32 1007.8
20260504213023 75 231 2.0 3.0 0.00 0.00 0.00 30 1007.8
20260504212519 76 231 0.0 1.0 0.00 0.00 0.00 30 1007.9
20260504212017 75 212 2.0 2.0 0.00 0.00 0.00 30 1008.1
20260504211513 75 268 4.0 5.0 0.00 0.00 0.00 29 1008.3
20260504211011 74 301 5.0 6.0 0.00 0.00 0.00 33 1008.1
20260504210508 74 295 3.0 3.0 0.00 0.00 0.00 33 1008.0
20260504210004 76 251 3.0 3.0 0.00 0.00 0.00 33 1008.3
20260504205502 75 327 4.0 5.0 0.00 0.00 0.00 32 1008.3
20260504205000 74 241 3.0 3.0 0.00 0.00 0.00 33 1008.4
20260504204458 75 269 5.0 7.0 0.00 0.00 0.00 30 1008.5
20260504203957 74 273 1.0 2.0 0.00 0.00 0.00 35 1008.3
20260504203454 73 214 1.0 1.0 0.00 0.00 0.00 36 1008.5
20260504202950 73 231 2.0 2.0 0.00 0.00 0.00 36 1008.5
20260504202446 75 249 4.0 5.0 0.00 0.00 0.00 34 1008.6
20260504201943 74 44 2.0 2.0 0.00 0.00 0.00 34 1008.7
20260504201441 74 313 3.0 3.0 0.00 0.00 0.00 33 1008.6
20260504200938 74 260 2.0 2.0 0.00 0.00 0.00 35 1008.7
20260504200435 73 284 1.0 2.0 0.00 0.00 0.00 35 1008.8
20260504195931 73 222 3.0 3.0 0.00 0.00 0.00 36 1008.9
20260504195427 72 230 3.0 3.0 0.00 0.00 0.00 36 1008.9
20260504194924 72 334 3.0 5.0 0.00 0.00 0.00 34 1008.9
20260504194420 73 290 2.0 2.0 0.00 0.00 0.00 35 1008.8
20260504193916 73 228 2.0 2.0 0.00 0.00 0.00 35 1009.1
20260504193414 73 281 4.0 5.0 0.00 0.00 0.00 36 1009.2
20260504192912 73 56 4.0 5.0 0.00 0.00 0.00 35 1009.3
20260504192409 72 50 3.0 5.0 0.00 0.00 0.00 36 1009.4
20260504191908 72 261 2.0 2.0 0.00 0.00 0.00 37 1009.4
20260504191405 72 284 1.0 2.0 0.00 0.00 0.00 36 1009.4
20260504190900 73 345 3.0 3.0 0.00 0.00 0.00 37 1009.3
20260504190356 71 205 1.0 1.0 0.00 0.00 0.00 37 1009.5
20260504185853 71 223 2.0 2.0 0.00 0.00 0.00 38 1009.7
20260504185350 71 297 3.0 5.0 0.00 0.00 0.00 36 1010.0
20260504184846 71 329 1.0 1.0 0.00 0.00 0.00 37 1009.9
20260504184342 71 209 3.0 3.0 0.00 0.00 0.00 37 1010.0
20260504183838 70 231 2.0 2.0 0.00 0.00 0.00 37 1009.9
20260504183336 72 320 5.0 6.0 0.00 0.00 0.00 36 1010.1
20260504182833 70 217 1.0 2.0 0.00 0.00 0.00 38 1010.3
20260504182331 70 279 3.0 3.0 0.00 0.00 0.00 39 1010.3
20260504181827 71 317 4.0 6.0 0.00 0.00 0.00 38 1010.3
20260504181325 70 254 0.0 1.0 0.00 0.00 0.00 38 1010.4
20260504180824 70 342 3.0 3.0 0.00 0.00 0.00 39 1010.4
20260504180322 69 347 4.0 5.0 0.00 0.00 0.00 41 1010.4
20260504175820 69 89 2.0 3.0 0.00 0.00 0.00 40 1010.5
20260504175316 69 305 1.0 2.0 0.00 0.00 0.00 40 1010.8
20260504174815 67 55 3.0 3.0 0.00 0.00 0.00 41 1010.9
20260504174312 66 286 3.0 3.0 0.00 0.00 0.00 41 1010.8
20260504173808 66 226 1.0 1.0 0.00 0.00 0.00 41 1010.9
20260504173305 66 314 2.0 3.0 0.00 0.00 0.00 45 1010.9
20260504172802 66 195 1.0 1.0 0.00 0.00 0.00 45 1010.9
20260504172259 64 210 1.0 1.0 0.00 0.00 0.00 47 1010.9
20260504171754 64 301 3.0 3.0 0.00 0.00 0.00 47 1010.8
20260504171252 64 168 2.0 2.0 0.00 0.00 0.00 47 1010.9
20260504170749 64 163 2.0 2.0 0.00 0.00 0.00 46 1010.9
20260504170246 63 214 1.0 1.0 0.00 0.00 0.00 46 1011.1
20260504160204 58 217 1.0 2.0 0.00 0.00 0.00 50 1011.2
20260504151132 55 325 3.0 3.0 0.00 0.00 0.00 58 1011.2
20260504150630 55 273 3.0 3.0 0.00 0.00 0.00 59 1011.2
20260504150126 55 214 0.0 0.0 0.00 0.00 0.00 56 1011.3
20260504141055 48 218 3.0 3.0 0.00 0.00 0.00 67 1011.6
20260504140551 47 222 1.0 1.0 0.00 0.00 0.00 69 1011.7
20260504130516 47 287 2.0 2.0 0.00 0.00 0.00 62 1011.2
20260504110403 45 193 3.0 3.0 0.00 0.00 0.00 72 1011.1
20260504100320 48 37 5.0 6.0 0.00 0.00 0.00 64 1010.8
20260504081714 54 54 6.0 8.0 0.00 0.00 0.00 41 1010.9
20260504081210 55 40 5.0 7.0 0.00 0.00 0.00 41 1010.9
20260504080707 56 75 4.0 5.0 0.00 0.00 0.00 40 1010.9
20260504080203 55 73 5.0 7.0 0.00 0.00 0.00 39 1010.9
20260504070131 56 191 2.0 2.0 0.00 0.00 0.00 42 1011.2
20260504050520 54 233 0.0 0.0 0.00 0.00 0.00 51 1011.7
20260504050016 54 161 2.0 2.0 0.00 0.00 0.00 50 1011.6
20260504045513 55 191 1.0 1.0 0.00 0.00 0.00 51 1011.8
20260504045009 56 213 0.0 1.0 0.00 0.00 0.00 50 1011.8
20260504044506 56 238 1.0 1.0 0.00 0.00 0.00 50 1011.9
20260504044003 56 226 0.0 0.0 0.00 0.00 0.00 50 1011.9
20260504043500 57 229 0.0 0.0 0.00 0.00 0.00 49 1011.9
20260504042958 57 228 2.0 2.0 0.00 0.00 0.00 48 1011.7
20260504042454 59 203 2.0 2.0 0.00 0.00 0.00 45 1011.8
20260504041951 60 236 1.0 1.0 0.00 0.00 0.00 41 1011.8
20260504041447 61 227 0.0 1.0 0.00 0.00 0.00 33 1011.9
20260504040943 61 171 3.0 3.0 0.00 0.00 0.00 34 1011.8
20260504040441 62 109 3.0 3.0 0.00 0.00 0.00 33 1011.7
20260504035936 62 104 3.0 5.0 0.00 0.00 0.00 32 1011.8
20260504035435 63 204 1.0 1.0 0.00 0.00 0.00 32 1011.9
20260504034931 63 160 1.0 2.0 0.00 0.00 0.00 32 1011.8
20260504034428 63 92 4.0 5.0 0.00 0.00 0.00 31 1011.6
20260504033925 63 85 1.0 1.0 0.00 0.00 0.00 31 1011.7
20260504033423 63 131 4.0 5.0 0.00 0.00 0.00 30 1011.8
20260504032920 62 178 1.0 1.0 0.00 0.00 0.00 31 1011.7
20260504032417 62 189 1.0 2.0 0.00 0.00 0.00 32 1011.7
20260504031913 61 216 0.0 0.0 0.00 0.00 0.00 33 1011.6
20260504031411 62 220 0.0 0.0 0.00 0.00 0.00 36 1011.3
20260504030907 64 207 1.0 1.0 0.00 0.00 0.00 33 1011.5
20260504030404 64 178 2.0 2.0 0.00 0.00 0.00 32 1011.3
20260504025900 63 199 0.0 0.0 0.00 0.00 0.00 31 1011.2
20260504025357 64 213 0.0 0.0 0.00 0.00 0.00 32 1011.5
20260504024854 65 213 0.0 0.0 0.00 0.00 0.00 31 1011.3
20260504024350 65 224 0.0 0.0 0.00 0.00 0.00 33 1011.5
20260504023848 65 217 0.0 0.0 0.00 0.00 0.00 33 1011.3
20260504023344 66 210 0.0 0.0 0.00 0.00 0.00 32 1011.2
20260504022839 66 214 0.0 0.0 0.00 0.00 0.00 30 1011.3